EW7001 Weather Reports


Display with metric or nautical units.
time (UTC)temp
F
wind
direction
speed
MPH
gust
MPH
rain 1hr
in
rain 24hr
in
rain mn
in
humidity
%
barometer
mb
20260904060050 64 147 2.0 5.0 0.00 1.41 0.87 22 1000.7
20260904054551 65 63 1.0 2.0 0.00 1.41 0.87 23 1000.5
20260904053058 63 220 2.0 5.0 0.00 1.41 0.87 23 1000.7
20260904051547 66 241 4.0 6.0 0.00 1.41 0.87 21 1000.4
20260904050016 67 220 5.0 8.0 0.00 1.41 0.87 21 1000.4
20260904044519 70 211 6.0 9.0 0.00 1.41 0.87 19 1000.5
20260904043012 71 194 5.0 8.0 0.00 1.41 0.87 18 1000.5
20260904041512 70 190 3.0 6.0 0.00 1.41 0.87 18 1000.6
20260904040011 64 202 3.0 5.0 0.00 1.41 0.87 23 1000.6
20260904034510 62 63 1.0 3.0 0.00 1.41 0.87 24 1000.5
20260904033005 65 178 1.0 5.0 0.00 1.41 0.87 21 1000.4
20260904031504 65 193 4.0 5.0 0.00 1.41 0.87 21 1000.4
20260904030005 64 223 1.0 2.0 0.00 1.41 0.87 21 1000.4
20260904024600 65 201 1.0 4.0 0.00 1.41 0.87 21 1000.3
20260904023055 66 203 2.0 5.0 0.00 1.41 0.87 20 1000.3
20260904021555 66 203 3.0 5.0 0.00 1.41 0.87 20 1000.1
20260904020050 68 211 3.0 5.0 0.00 1.41 0.87 18 999.9
20260904014547 73 202 2.0 5.0 0.00 1.45 0.87 16 999.8
20260904013045 77 204 4.0 7.0 0.00 1.45 0.87 14 999.6
20260904011544 81 216 9.0 13.0 0.01 1.45 0.87 12 999.6
20260904010037 83 208 8.0 14.0 0.02 1.45 0.87 12 999.5
20260904004536 84 192 8.0 14.0 0.03 1.57 0.87 11 999.5
20260904003035 85 207 6.0 12.0 0.05 1.57 0.87 12 999.4
20260904001533 85 246 8.0 17.0 0.04 1.56 0.86 11 999.4
20260904000032 86 220 8.0 18.0 0.03 1.55 0.85 11 999.4
20260903234531 86 223 7.0 16.0 0.13 2.54 0.84 11 999.3
20260903233006 87 223 12.0 18.0 0.14 2.52 0.82 10 999.3
20260903231600 86 240 6.0 12.0 0.24 2.52 0.82 12 999.1
20260903230058 86 221 7.0 17.0 0.34 2.52 0.82 11 999.1
20260903224551 87 254 14.0 22.0 0.23 3.74 0.71 11 999.2
20260903223045 87 204 13.0 23.0 0.30 3.71 0.68 11 999.1
20260903221543 87 232 16.0 23.0 0.20 3.61 0.57 12 999.1
20260903220012 86 300 3.0 9.0 0.14 3.51 0.48 14 999.2
20260903214513 86 314 3.0 22.0 0.15 4.34 0.48 13 999.1
20260903213005 86 225 6.0 14.0 0.05 4.24 0.38 13 999.2
20260903211501 86 233 16.0 24.0 0.07 4.24 0.38 13 999.3
20260903204601 86 236 7.0 28.0 0.10 5.19 0.33 14 999.4
20260903203056 85 305 2.0 15.0 0.13 5.19 0.33 14 999.4
20260903201559 84 291 3.0 15.0 0.13 5.17 0.31 15 999.3
20260903200058 85 206 11.0 22.0 0.06 5.09 0.24 14 999.5
20260903194547 85 279 3.0 17.0 0.06 8.43 0.23 15 999.4
20260903193046 85 247 5.0 17.0 0.07 8.40 0.20 17 999.6
20260903191543 84 306 10.0 16.0 0.13 8.38 0.18 16 999.3
20260903190040 84 288 4.0 17.0 0.15 8.38 0.18 18 999.3
20260903184537 83 232 11.0 19.0 0.14 9.80 0.17 18 999.5
20260903183034 83 228 11.0 24.0 0.11 9.76 0.13 21 999.6
20260903181530 81 189 8.0 18.0 0.04 9.68 0.05 25 999.6
20260903180034 81 219 10.0 19.0 0.03 9.66 0.03 22 999.8
20260903174524 80 286 2.0 10.0 0.03 1.03 0.03 26 999.8
20260903173020 79 181 6.0 12.0 0.02 1.02 0.02 26 999.9
20260903171517 79 170 5.0 10.0 0.01 1.02 0.01 27 999.9
20260903170013 78 317 3.0 11.0 0.00 1.02 0.00 28 999.9
20260903164514 78 139 4.0 13.0 0.00 1.04 1.02 26 1000.0
20260903163011 77 117 2.0 10.0 0.00 1.04 1.02 27 999.9
20260903161544 77 310 4.0 7.0 0.00 1.04 1.02 28 999.8
20260903160042 76 25 2.0 5.0 0.00 1.04 1.02 29 999.8
20260903154545 75 18 3.0 6.0 0.00 1.11 1.02 29 999.9
20260903153046 75 321 4.0 7.0 0.00 1.11 1.02 29 1000.0
20260903151540 74 331 2.0 6.0 0.00 1.11 1.02 30 1000.0
20260903150037 73 37 2.0 5.0 0.00 1.11 1.02 33 1000.1
20260903144535 71 319 3.0 5.0 0.00 1.13 1.02 36 1000.2
20260903143045 68 206 3.0 5.0 0.00 1.13 1.02 38 1000.3
20260903141539 67 308 1.0 4.0 0.00 1.13 1.02 41 1000.2
20260903140033 67 296 1.0 2.0 0.00 1.13 1.02 42 1000.3
20260903134530 67 286 0.0 3.0 0.00 1.14 1.02 41 1000.1
20260903133030 67 322 1.0 4.0 0.00 1.14 1.02 41 999.8
20260903131529 67 331 0.0 4.0 0.00 1.14 1.02 40 999.5
20260903130027 66 303 2.0 4.0 0.00 1.14 1.02 40 999.7
20260903124531 67 344 1.0 4.0 0.00 1.15 1.02 39 999.6
20260903123025 69 178 0.0 4.0 0.00 1.15 1.02 37 999.4
20260903121523 70 250 1.0 5.0 0.00 1.15 1.02 35 999.4
20260903120025 70 314 1.0 6.0 0.01 1.15 1.02 34 999.5
20260903114519 71 296 4.0 12.0 0.03 1.15 1.02 33 999.5
20260903113022 71 232 12.0 19.0 0.04 1.15 1.02 34 999.5
20260903111528 70 234 12.0 21.0 0.04 1.15 1.02 34 999.3
20260903110016 68 240 7.0 10.0 0.03 1.15 1.02 36 999.1
20260903104516 70 221 10.0 16.0 0.01 1.14 1.02 34 999.0
20260903103013 68 222 7.0 13.0 0.00 1.14 1.02 36 998.8
20260903101523 69 213 7.0 12.0 0.03 1.14 1.02 36 998.8
20260903100012 69 222 9.0 15.0 0.09 1.14 1.02 35 998.8
20260903094510 69 213 9.0 14.0 0.14 1.14 1.02 35 998.8
20260903093010 69 220 9.0 13.0 0.27 1.14 1.02 34 998.7
20260903091507 70 228 10.0 16.0 0.36 1.14 1.01 33 998.9
20260903090007 70 224 11.0 17.0 0.40 1.13 1.01 33 999.0
20260903084507 69 215 9.0 15.0 0.35 1.13 1.00 33 999.0
20260903083004 69 206 10.0 16.0 0.21 1.12 9.94 33 999.0
20260903081502 68 196 11.0 15.0 0.11 1.10 9.84 36 999.1
20260903080001 66 182 4.0 7.0 0.01 1.09 9.74 40 999.2
20260903074531 67 199 5.0 9.0 0.01 1.09 9.74 40 999.2
20260903073035 68 202 7.0 11.0 0.01 1.09 9.74 39 999.2
20260903071528 67 199 7.0 10.0 0.00 1.09 9.73 40 999.3
20260903070029 66 188 5.0 9.0 0.00 1.09 9.73 42 999.1
20260903064524 66 169 6.0 9.0 0.00 1.09 9.73 42 999.1
20260903063022 66 185 5.0 7.0 0.00 1.09 9.73 42 999.0
20260903061527 67 190 5.0 8.0 0.00 1.09 9.73 42 999.0